Regional Weather Roundup
Issued by NWS

Home | Current Version | Previous Version | Text Only | Print | Product List | Glossary Off
Versions: 1 2 3 4 5 6 7 8 9 10 11 12 13 14 15 16 17 18 19 20 21 22 23 24 25 26 27

000
ASUS45 KCYS 212210
RWRWY

WYOMING REGIONAL WEATHER ROUNDUP
NATIONAL WEATHER SERVICE CHEYENNE WY
300 PM MST WED FEB 21 2018

NOTE:  "FAIR" INDICATES FEW OR NO CLOUDS BELOW 12,000 FEET
WITH NO SIGNIFICANT WEATHER AND/OR OBSTRUCTIONS TO VISIBILITY.

WYZ001-212300-
YELLOWSTONE NATIONAL PARK

CITY           SKY/WX    TMP DP  RH WIND       PRES   REMARKS
LK YELLOWSTONE   N/A     13   2  61 MISG      29.92S
W YELLOWSTONE  NOT AVBL

$$
WYZ002>013-054>058-071-098>099-212300-
NORTHERN WYOMING

CITY           SKY/WX    TMP DP  RH WIND       PRES   REMARKS
JACKSON        FAIR      18   4  54 S14       30.00F WCI   4
CODY           FAIR      18   2  49 E7        30.02S WCI   9
GREYBULL       FAIR       3  -5  69 E5        30.13F WCI  -6
WORLAND        FLURRIES  15   2  56 NE6       30.10F WCI   6
SHERIDAN       FAIR       7  -4  60 N8        30.07S WCI  -6
BUFFALO        FAIR      16   0  49 S3        30.03S
GILLETTE       FAIR      18   5  57 SW13      30.09R WCI   5
HULETT         FAIR      21   0  39 MISG      30.12S
NEWCASTLE      FAIR      19   1  45 SE8       30.17S WCI   9

$$
WYZ014>020-022>026-101>103-212300-
CENTRAL WYOMING

CITY           SKY/WX    TMP DP  RH WIND       PRES   REMARKS
BIG PINEY      FAIR      12   1  61 VRB3      30.03F
PINEDALE       FAIR      16  -4  41 CALM      30.03S
DUBOIS           N/A    N/A N/A N/A MISG        N/A
LANDER         FAIR      13   4  67 SE6       30.04F WCI   4
RIVERTON       FAIR       7  -4  60 NE5       30.06S WCI  -2
CASPER         FAIR      17   4  56 SW17      30.09S WCI   1
DOUGLAS        FAIR      15   5  64 CALM      30.12S

$$
WYZ021-027>030-104>119-212300-
SOUTHERN WYOMING

CITY           SKY/WX    TMP DP  RH WIND       PRES   REMARKS
EVANSTON       FAIR      19   3  49 CALM      29.98F
FORT BRIDGER   FAIR       5  -3  68 CALM      30.05S
ROCK SPRINGS   FAIR      15   2  56 N5        30.04S WCI   8
DIXON          FAIR      21   6  50 CALM      30.08S
RAWLINS        FAIR      18   8  65 W14       30.03F WCI   4
SARATOGA       FAIR      19   9  63 E3        30.03F
LARAMIE        FAIR      23   2  40 SW13      29.98S WCI  11
CHEYENNE       FAIR      23  12  62 S9        30.07S WCI  13
TORRINGTON     FAIR      30  14  51 S14       30.15S WCI  19
PINE BLUFFS    FAIR      21  10  63 MISG      30.16R

$$




USA.gov is the U.S. government's official web portal to all federal, state and local government web resources and services.